CW2597 Weather Reports


time (UTC)temp
C
wind
direction
speed
KPH
gust
KPH
rain 1hr
cm
rain 24hr
cm
rain mn
cm
humidity
%
barometer
mb
20260507073204 8 354 0.0 0.0 0.00 1.07 0.00 87 1014.1
20260507072512 8 360 0.0 1.6 0.00 0.00 0.00 87 1012.9
20260507072204 8 14 0.0 14.5 0.00 1.07 0.00 87 1014.1
20260507071704 8 59 0.0 0.0 0.00 1.09 0.00 88 1014.0
20260507071512 8 63 0.0 0.0 0.00 0.00 0.00 88 1012.8
20260507071204 8 12 0.0 0.0 0.00 1.09 0.00 88 1013.9
20260507070704 8 16 0.0 1.6 0.00 1.09 0.00 88 1013.9
20260507070513 8 65 0.0 1.6 0.00 0.00 0.00 88 1012.7
20260507070204 8 38 0.0 0.0 0.00 1.09 0.00 88 1013.9
20260507065704 8 1 0.0 0.0 0.00 1.09 0.00 88 1013.8
20260507065512 8 350 0.0 0.0 0.00 0.00 0.00 88 1012.6
20260507065204 8 32 0.0 0.0 0.00 1.09 0.00 88 1013.9
20260507064704 8 9 0.0 0.0 0.00 1.09 0.00 89 1013.8
20260507064512 8 9 0.0 0.0 0.00 0.00 0.00 89 1012.7
20260507064204 8 19 0.0 0.0 0.00 1.12 0.00 89 1013.8
20260507063204 8 357 0.0 1.6 0.00 1.14 0.00 89 1013.7
20260507062703 8 353 1.6 11.3 0.00 1.14 0.00 90 1013.7
20260507061704 8 356 1.6 4.8 0.00 1.17 0.00 91 1013.5
20260507061512 8 340 1.6 6.4 0.00 0.00 0.00 91 1012.3
20260507061204 8 348 3.2 8.0 0.00 1.17 0.00 91 1013.4
20260507060704 8 345 0.0 4.8 0.00 1.17 0.00 92 1013.4
20260507060513 8 14 0.0 6.4 0.00 0.00 0.00 92 1012.1
20260507060205 8 0 0.0 4.8 0.00 1.19 0.00 92 1013.3
20260507055704 8 346 1.6 8.0 0.00 1.22 0.00 93 1013.3
20260507055512 8 358 0.0 6.4 0.00 0.00 0.00 93 1012.1
20260507055203 8 11 0.0 4.8 0.00 1.22 0.00 93 1013.3
20260507054703 8 343 0.0 0.0 0.00 1.24 0.00 93 1013.2
20260507053704 8 340 0.0 0.0 0.00 1.27 0.00 93 1013.1
20260507053512 8 340 0.0 0.0 0.00 0.00 0.00 93 1011.9
20260507053204 8 340 0.0 0.0 0.00 1.27 0.00 93 1013.0
20260507052704 8 340 0.0 1.6 0.00 1.27 0.00 93 1013.0
20260507052512 8 340 0.0 4.8 0.00 0.00 0.00 93 1011.8
20260507052204 8 340 0.0 3.2 0.00 1.30 0.00 93 1012.9
20260507051704 8 330 0.0 0.0 0.00 1.30 0.00 93 1012.9
20260507051512 8 330 0.0 0.0 0.00 0.00 0.00 93 1011.8
20260507050706 7 340 0.0 0.0 0.00 1.32 0.00 93 1012.8
20260507050513 8 340 0.0 0.0 0.00 0.00 0.00 93 1011.7
20260507050205 7 340 0.0 0.0 0.00 1.35 0.00 93 1012.7
20260507045705 7 340 0.0 0.0 0.00 1.35 0.00 93 1012.7
20260507045513 7 340 0.0 0.0 0.00 0.00 0.00 93 1011.5
20260507045206 7 340 0.0 0.0 0.00 1.37 0.00 93 1012.6
20260507044706 7 340 0.0 0.0 0.00 1.37 0.00 93 1012.6
20260507044512 7 340 0.0 0.0 0.00 0.00 0.00 93 1011.4
20260507044205 7 340 0.0 0.0 0.00 1.37 0.00 93 1012.6
20260507043706 7 340 0.0 0.0 0.00 1.40 0.00 93 1012.5
20260507043512 7 340 0.0 0.0 0.00 0.00 0.00 93 1011.3
20260507043206 7 340 0.0 0.0 0.00 1.42 0.00 93 1012.5
20260507042706 7 340 0.0 0.0 0.00 1.42 0.00 93 1012.5
20260507042512 7 340 0.0 0.0 0.00 0.00 0.00 93 1011.2
20260507042206 7 340 0.0 0.0 0.00 1.45 0.00 93 1012.4
20260507041705 7 340 0.0 0.0 0.00 1.45 0.00 93 1012.4
20260507041512 7 340 0.0 0.0 0.00 0.00 0.00 93 1011.2
20260507041205 7 340 0.0 0.0 0.00 1.45 0.00 93 1012.3
20260507040706 7 340 0.0 0.0 0.00 1.47 0.00 93 1012.3
20260507040512 7 340 0.0 0.0 0.00 0.00 0.00 93 1011.1
20260507040206 7 340 0.0 0.0 0.00 1.47 0.00 93 1012.3
20260507035706 7 340 0.0 0.0 0.00 1.50 0.00 93 1012.3
20260507035205 7 340 0.0 0.0 0.00 1.50 0.00 93 1012.2
20260507034706 7 340 0.0 0.0 0.00 1.52 0.00 93 1012.1
20260507034512 7 340 0.0 0.0 0.00 0.00 0.00 93 1011.0
20260507033706 7 340 0.0 0.0 0.00 1.55 0.00 93 1012.1
20260507033512 7 340 0.0 0.0 0.00 0.00 0.00 93 1010.9
20260507033206 7 340 0.0 0.0 0.00 1.55 0.00 93 1012.0
20260507031705 7 340 0.0 0.0 0.00 1.60 0.00 93 1011.9
20260507031512 7 340 0.0 0.0 0.00 0.00 0.00 93 1010.7
20260507031206 7 340 0.0 0.0 0.00 1.63 0.00 93 1011.9
20260507030705 7 340 0.0 0.0 0.00 1.65 0.00 93 1011.9
20260507030513 7 340 0.0 0.0 0.00 0.00 0.00 93 1010.7
20260507030205 7 340 0.0 0.0 0.00 1.65 0.00 92 1011.9
20260507025705 7 340 0.0 0.0 0.00 1.65 0.00 92 1011.8
20260507025206 7 340 0.0 0.0 0.00 1.68 0.00 92 1011.8
20260507024705 7 340 0.0 0.0 0.00 1.70 0.00 92 1011.7
20260507024205 7 340 0.0 0.0 0.00 1.70 0.00 92 1011.6
20260507023706 7 340 0.0 0.0 0.00 1.73 0.00 92 1011.6
20260507023512 7 340 0.0 0.0 0.00 0.00 0.00 92 1010.4
20260507023206 7 340 0.0 0.0 0.00 1.75 0.00 92 1011.5
20260507022705 7 340 0.0 0.0 0.00 1.75 0.00 92 1011.5
20260507022512 8 340 0.0 0.0 0.00 0.00 0.00 92 1010.4
20260507021512 8 340 0.0 0.0 0.00 0.00 0.00 92 1010.3
20260507021206 8 340 0.0 0.0 0.00 1.80 0.00 92 1011.5
20260507020705 8 340 0.0 0.0 0.00 1.80 0.00 92 1011.5
20260507020512 8 340 0.0 0.0 0.00 0.00 0.00 92 1010.3
20260507020205 8 340 0.0 0.0 0.00 1.83 0.00 92 1011.4
20260507015705 8 340 0.0 0.0 0.00 1.83 0.00 92 1011.5
20260507015512 8 340 0.0 0.0 0.00 0.00 0.00 92 1010.3
20260507015205 8 340 0.0 0.0 0.00 1.83 0.00 92 1011.5
20260507014706 8 340 0.0 0.0 0.00 1.85 0.00 92 1011.4
20260507014512 8 340 0.0 0.0 0.00 0.00 0.00 92 1010.2
20260507014205 8 340 0.0 0.0 0.00 1.85 0.00 92 1011.3
20260507013705 8 340 0.0 0.0 0.00 1.88 0.00 92 1011.3
20260507013512 8 340 0.0 0.0 0.00 0.00 0.00 92 1010.2
20260507013206 8 340 0.0 0.0 0.00 1.91 0.00 92 1011.3
20260507012706 8 340 0.0 0.0 0.00 1.91 0.00 92 1011.2
20260507012512 8 340 0.0 0.0 0.00 0.00 0.00 92 1010.0
20260507012205 8 340 0.0 0.0 0.00 1.93 0.00 92 1011.2
20260507011706 8 340 0.0 0.0 0.00 1.93 0.00 92 1011.1
20260507011512 8 340 0.0 0.0 0.00 0.00 0.00 92 1010.0
20260507011206 8 340 0.0 0.0 0.00 1.93 0.00 92 1011.1
20260507010705 8 340 0.0 0.0 0.00 1.93 0.00 92 1011.1
20260507010513 8 340 0.0 0.0 0.00 0.00 0.00 92 1010.0
20260507010205 8 340 0.0 0.0 0.00 1.93 0.00 92 1011.1
20260507005705 8 340 0.0 0.0 0.00 1.96 0.00 92 1011.1
20260507005512 8 340 0.0 0.0 0.00 0.00 0.00 92 1009.9
20260507005206 8 340 0.0 0.0 0.00 1.96 0.00 92 1011.0
20260507004705 8 340 0.0 0.0 0.00 1.96 0.00 92 1011.1
20260507004206 8 340 0.0 0.0 0.00 1.96 0.00 92 1011.0
20260507003512 8 340 0.0 0.0 0.00 0.00 0.00 92 1009.9
20260507003205 8 340 0.0 0.0 0.00 1.98 0.00 92 1011.0
20260507002705 8 340 0.0 0.0 0.00 1.98 0.00 92 1011.0
20260507002512 8 340 0.0 0.0 0.00 0.00 0.00 92 1009.7
20260507001706 8 340 0.0 0.0 0.00 1.98 0.00 92 1010.9
20260507001205 8 340 0.0 0.0 0.00 1.98 0.00 92 1010.9
20260507000705 8 340 0.0 0.0 0.00 1.98 0.00 92 1010.8
20260507000512 8 340 0.0 0.0 0.00 0.00 0.00 92 1009.7
20260506235705 8 340 0.0 0.0 0.00 1.98 0.00 92 1010.9
20260506235205 8 340 0.0 0.0 0.00 1.98 0.00 92 1011.0
20260506234705 8 340 0.0 0.0 0.00 1.98 0.00 92 1010.9
20260506234512 8 340 0.0 0.0 0.00 0.00 0.00 92 1009.7
20260506234206 8 340 0.0 0.0 0.00 1.98 0.00 92 1010.8
20260506233706 8 340 0.0 0.0 0.00 1.98 0.00 92 1010.8
20260506233512 8 340 0.0 0.0 0.00 0.00 0.00 92 1009.6
20260506233205 8 340 0.0 0.0 0.00 1.98 0.00 92 1010.8
20260506232706 8 340 0.0 0.0 0.00 1.98 0.00 92 1010.8
20260506232205 8 340 0.0 0.0 0.00 1.98 0.00 92 1010.8
20260506231511 8 340 0.0 0.0 0.00 0.00 0.00 92 1009.6
20260506231205 8 340 0.0 0.0 0.00 1.98 0.00 92 1010.9
20260506230512 8 340 0.0 0.0 0.00 0.00 0.00 91 1009.6
20260506230205 8 340 0.0 0.0 0.00 1.98 0.00 91 1010.8
20260506225705 8 340 0.0 0.0 0.00 1.98 0.00 91 1010.8
20260506224705 8 340 0.0 0.0 0.00 1.98 0.00 91 1010.7
20260506224511 8 340 0.0 0.0 0.00 0.00 0.00 91 1009.5
20260506224206 8 340 0.0 0.0 0.00 1.98 0.00 91 1010.6
20260506223705 8 340 0.0 0.0 0.00 1.98 0.00 91 1010.7
20260506223512 8 340 0.0 0.0 0.00 0.00 0.00 91 1009.5
20260506223205 8 340 0.0 0.0 0.00 1.98 0.00 91 1010.6
20260506222705 8 340 0.0 0.0 0.00 1.98 0.00 91 1010.6
20260506222511 8 340 0.0 0.0 0.00 0.00 0.00 91 1009.4
20260506222205 8 340 0.0 0.0 0.00 1.98 0.00 91 1010.6
20260506221706 8 340 0.0 0.0 0.00 1.98 0.00 91 1010.6
20260506221512 8 340 0.0 0.0 0.00 0.00 0.00 91 1009.5
20260506221205 8 340 0.0 0.0 0.00 1.98 0.00 91 1010.6
20260506220705 8 340 0.0 0.0 0.00 1.98 0.00 91 1010.6
20260506220206 8 340 0.0 0.0 0.00 1.98 0.00 91 1010.6
20260506215705 8 349 0.0 0.0 0.00 1.98 1.98 91 1010.6
20260506215512 8 340 0.0 0.0 0.00 1.98 1.98 91 1009.5
20260506215205 8 350 0.0 0.0 0.00 1.98 1.98 91 1010.6
20260506214705 8 350 0.0 0.0 0.00 1.98 1.98 91 1010.6
20260506214512 8 350 0.0 0.0 0.00 1.98 1.98 91 1009.4
20260506214206 8 350 0.0 0.0 0.00 1.98 1.98 91 1010.6
20260506213705 8 350 0.0 0.0 0.00 1.98 1.98 91 1010.6
20260506213513 8 350 0.0 0.0 0.00 1.98 1.98 91 1009.3
20260506213205 8 350 0.0 0.0 0.00 1.98 1.98 91 1010.5
20260506212705 8 350 0.0 0.0 0.00 1.98 1.98 91 1010.5
20260506212512 8 350 0.0 0.0 0.00 1.98 1.98 91 1009.3
20260506212205 8 350 0.0 0.0 0.00 1.98 1.98 91 1010.4
20260506211705 8 350 0.0 0.0 0.00 1.98 1.98 91 1010.4
20260506211512 8 350 0.0 0.0 0.00 1.98 1.98 91 1009.2
20260506211206 8 350 0.0 0.0 0.00 1.98 1.98 91 1010.4
20260506210705 8 350 0.0 0.0 0.00 1.98 1.98 91 1010.4
20260506210512 8 350 0.0 0.0 0.00 1.98 1.98 91 1009.2
20260506210205 8 350 0.0 0.0 0.00 1.98 1.98 91 1010.4
20260506205704 8 350 0.0 0.0 0.00 1.98 1.98 91 1010.3
20260506205512 8 350 0.0 0.0 0.00 1.98 1.98 91 1009.1
20260506205205 8 350 0.0 0.0 0.00 1.98 1.98 91 1010.3
20260506204705 8 350 0.0 0.0 0.00 1.98 1.98 91 1010.2
20260506204512 8 350 0.0 0.0 0.00 1.98 1.98 91 1009.1
20260506204206 8 350 0.0 0.0 0.00 1.98 1.98 91 1010.2
20260506203705 8 350 0.0 0.0 0.00 1.98 1.98 91 1010.2
20260506203512 8 350 0.0 0.0 0.00 1.98 1.98 91 1009.1
20260506202705 8 350 0.0 0.0 0.00 1.98 1.98 90 1010.2
20260506202512 8 350 0.0 0.0 0.00 1.98 1.98 90 1009.0
20260506202204 8 350 0.0 0.0 0.00 1.98 1.98 90 1010.1
20260506201705 8 350 0.0 0.0 0.00 1.98 1.98 90 1010.1
20260506201205 8 350 0.0 0.0 0.00 1.98 1.98 90 1010.1
20260506200705 8 350 0.0 0.0 0.00 1.98 1.98 90 1010.1
20260506200511 8 350 0.0 0.0 0.00 1.98 1.98 90 1008.8
20260506200205 8 350 0.0 0.0 0.00 1.98 1.98 90 1010.1
20260506195205 8 350 0.0 0.0 0.00 1.98 1.98 90 1010.0
20260506194511 9 350 0.0 0.0 0.00 1.98 1.98 90 1008.8
20260506193705 9 350 0.0 0.0 0.00 1.98 1.98 90 1010.0
20260506192705 9 350 0.0 0.0 0.00 1.98 1.98 90 1009.9
20260506192511 9 350 0.0 0.0 0.00 1.98 1.98 90 1008.6
20260506192205 9 340 0.0 0.0 0.00 1.98 1.98 90 1009.8
20260506191705 9 318 0.0 0.0 0.00 1.98 1.98 90 1009.8
20260506191511 9 317 0.0 0.0 0.00 1.98 1.98 90 1008.6
20260506191205 9 340 0.0 0.0 0.00 1.98 1.98 90 1009.7
20260506190205 9 305 0.0 0.0 0.00 1.98 1.98 90 1009.6
20260506185705 9 321 0.0 0.0 0.00 1.98 1.98 89 1009.6
20260506185512 9 321 0.0 0.0 0.00 1.98 1.98 89 1008.4
20260506185205 9 291 0.0 0.0 0.00 1.98 1.98 89 1009.5
20260506184705 9 15 0.0 0.0 0.00 1.98 1.98 89 1009.4
20260506184204 9 15 0.0 0.0 0.00 1.98 1.98 89 1009.4
20260506183705 9 354 0.0 0.0 0.00 1.98 1.98 89 1009.4
20260506183511 9 354 0.0 0.0 0.00 1.98 1.98 89 1008.3
20260506183205 9 0 0.0 0.0 0.00 1.98 1.98 89 1009.3
20260506182704 9 340 0.0 0.0 0.00 1.98 1.98 89 1009.2
20260506182512 9 340 0.0 0.0 0.00 1.98 1.98 89 1008.0
20260506181704 9 0 0.0 0.0 0.00 1.98 1.98 89 1009.1
20260506181512 9 22 0.0 0.0 0.00 1.98 1.98 89 1007.9
20260506181204 9 9 0.0 0.0 0.00 1.98 1.98 89 1009.1
20260506180705 9 31 0.0 0.0 0.00 1.98 1.98 89 1009.1
20260506180512 9 6 0.0 0.0 0.00 1.98 1.98 89 1007.9
20260506180205 9 358 0.0 3.2 0.00 1.98 1.98 89 1009.1
20260506175705 10 323 0.0 4.8 0.00 1.98 1.98 89 1009.0
20260506175205 10 318 1.6 4.8 0.00 1.98 1.98 90 1009.0
20260506174705 10 315 0.0 3.2 0.00 1.98 1.98 89 1008.9
20260506174511 9 11 0.0 3.2 0.00 1.98 1.98 89 1007.8
20260506174205 10 5 0.0 12.9 0.00 1.98 1.98 89 1008.9
20260506173705 10 1 0.0 4.8 0.03 1.98 1.98 89 1008.9
20260506173511 10 83 0.0 0.0 0.03 1.98 1.98 90 1007.7
20260506173205 10 5 0.0 0.0 0.03 1.98 1.98 90 1008.8
20260506172205 9 355 0.0 0.0 0.03 1.98 1.98 90 1008.7
20260506171511 9 350 0.0 0.0 0.03 1.98 1.98 89 1007.6
20260506170705 9 20 0.0 3.2 0.03 1.98 1.98 89 1008.7
20260506170511 9 19 0.0 8.0 0.03 1.98 1.98 89 1007.6
20260506170205 9 106 1.6 8.0 0.03 1.98 1.98 90 1008.7
20260506165705 9 34 1.6 4.8 0.03 1.98 1.98 90 1008.7
20260506165511 9 25 1.6 4.8 0.03 1.98 1.98 90 1007.6
20260506164705 9 354 0.0 0.0 0.05 1.98 1.98 90 1008.7
20260506164512 9 62 0.0 0.0 0.05 1.98 1.98 90 1007.6
20260506164205 9 20 0.0 0.0 0.05 1.98 1.98 90 1008.7
20260506163704 9 4 0.0 8.0 0.03 1.96 1.96 90 1008.7
20260506163512 9 4 1.6 8.0 0.03 1.96 1.96 90 1007.6
20260506163205 9 306 1.6 4.8 0.03 1.96 1.96 90 1008.7
20260506162705 9 10 0.0 3.2 0.03 1.96 1.96 90 1008.6
20260506162511 9 57 0.0 6.4 0.03 1.96 1.96 90 1007.5
20260506162205 9 355 1.6 4.8 0.03 1.96 1.96 91 1008.7
20260506161705 9 302 0.0 0.0 0.05 1.96 1.96 91 1008.7
20260506161511 9 19 0.0 0.0 0.05 1.96 1.96 91 1007.6
20260506160704 9 8 0.0 0.0 0.05 1.96 1.96 91 1008.7
20260506160511 9 340 0.0 0.0 0.05 1.96 1.96 91 1007.5
20260506155705 9 358 0.0 1.6 0.05 1.96 1.96 91 1008.7
20260506155511 9 13 0.0 1.6 0.05 1.96 1.96 91 1007.5
20260506155205 9 6 0.0 8.0 0.05 1.96 1.96 91 1008.6
20260506154705 9 12 0.0 0.0 0.05 1.93 1.93 91 1008.7
20260506154511 9 356 0.0 0.0 0.05 1.93 1.93 91 1007.5
20260506154205 9 326 0.0 0.0 0.05 1.93 1.93 91 1008.7
20260506153511 9 354 0.0 0.0 0.05 1.93 1.93 91 1007.6
20260506153205 9 350 0.0 0.0 0.05 1.93 1.93 91 1008.8
20260506152511 9 26 0.0 0.0 0.05 1.93 1.93 91 1007.7
20260506151705 8 352 0.0 0.0 0.05 1.93 1.93 90 1008.8
20260506151511 8 350 0.0 3.2 0.05 1.93 1.93 90 1007.7
20260506151205 8 24 0.0 3.2 0.05 1.93 1.93 90 1008.8
20260506150511 8 67 1.6 8.0 0.05 1.93 1.93 90 1007.7
20260506150205 8 99 1.6 4.8 0.05 1.93 1.93 89 1008.9
20260506145705 8 335 1.6 9.7 0.08 1.93 1.93 89 1008.7
20260506145511 8 94 1.6 6.4 0.08 1.93 1.93 89 1007.7
20260506145205 8 15 1.6 11.3 0.05 1.91 1.91 89 1008.8
20260506144511 8 20 0.0 4.8 0.08 1.91 1.91 89 1007.6
20260506144205 8 20 1.6 4.8 0.08 1.91 1.91 89 1008.7
20260506143511 8 13 0.0 0.0 0.08 1.88 1.88 90 1007.6
20260506143204 8 0 0.0 0.0 0.08 1.88 1.88 90 1008.7
20260506142511 8 34 0.0 4.8 0.10 1.88 1.88 90 1007.6
20260506142205 8 15 1.6 12.9 0.13 1.88 1.88 90 1008.7
20260506141704 8 22 0.0 16.1 0.15 1.88 1.88 91 1008.7
20260506141511 8 61 1.6 16.1 0.13 1.85 1.85 91 1007.5
20260506141204 8 12 1.6 12.9 0.15 1.85 1.85 91 1008.7
20260506140704 8 36 0.0 0.0 0.15 1.85 1.85 91 1008.7
20260506140511 8 340 0.0 0.0 0.15 1.85 1.85 91 1007.4
20260506140204 8 321 0.0 4.8 0.15 1.85 1.85 91 1008.6
20260506135704 8 312 0.0 4.8 0.15 1.83 1.83 91 1008.6
20260506135511 8 310 0.0 3.2 0.15 1.83 1.83 91 1007.4
20260506134704 8 54 1.6 8.0 0.18 1.83 1.83 91 1008.4
20260506134511 8 345 1.6 8.0 0.15 1.83 1.83 91 1007.3
20260506134204 8 6 1.6 9.7 0.18 1.83 1.83 91 1008.5
20260506133511 8 44 0.0 0.0 0.15 1.80 1.80 91 1007.3
20260506132704 8 0 3.2 16.1 0.15 1.78 1.78 91 1008.5
20260506132511 9 2 3.2 16.1 0.18 1.78 1.78 91 1007.3
20260506132204 9 354 1.6 8.0 0.15 1.75 1.75 91 1008.4
20260506130704 9 260 0.0 3.2 0.15 1.73 1.73 92 1008.4
20260506130511 9 3 0.0 3.2 0.15 1.70 1.70 92 1007.2
20260506130204 9 340 0.0 1.6 0.15 1.70 1.70 92 1008.3
20260506125704 9 333 0.0 1.6 0.15 1.68 1.68 92 1008.3
20260506125204 9 311 0.0 0.0 0.15 1.68 1.68 91 1008.2
20260506124704 9 15 1.6 9.7 0.15 1.65 1.65 91 1008.3
20260506124511 9 38 1.6 9.7 0.15 1.65 1.65 91 1007.1
20260506124204 9 31 3.2 8.0 0.15 1.65 1.65 91 1008.2
20260506123704 9 6 1.6 4.8 0.15 1.65 1.65 91 1008.2
20260506123511 9 44 1.6 4.8 0.15 1.65 1.65 91 1007.1
20260506123204 9 7 0.0 0.0 0.15 1.63 1.63 92 1008.2
20260506122704 9 2 0.0 0.0 0.18 1.63 1.63 92 1008.2
20260506122511 9 350 0.0 0.0 0.15 1.60 1.60 92 1007.0
20260506122204 9 299 0.0 0.0 0.18 1.60 1.60 92 1008.1
20260506121705 9 2 0.0 0.0 0.20 1.60 1.60 92 1008.2
20260506121511 9 3 0.0 0.0 0.18 1.57 1.57 92 1007.1
20260506120704 9 2 0.0 0.0 0.23 1.55 1.55 92 1008.2
20260506120511 9 12 0.0 0.0 0.23 1.55 1.55 92 1007.1
20260506120204 9 352 0.0 0.0 0.23 1.55 1.55 92 1008.1
20260506115704 9 358 0.0 3.2 0.23 1.55 1.55 92 1008.1
20260506115511 9 358 0.0 3.2 0.23 1.55 1.55 92 1007.0
20260506115204 9 35 1.6 4.8 0.23 1.52 1.52 91 1008.1
20260506113704 8 5 0.0 3.2 0.25 1.47 1.47 92 1008.0
20260506113204 8 352 1.6 8.0 0.25 1.45 1.45 92 1008.0
20260506112512 8 40 0.0 3.2 0.25 1.45 1.45 92 1006.8
20260506112205 8 10 0.0 9.7 0.25 1.42 1.42 92 1008.0
20260506111704 8 340 0.0 8.0 0.25 1.40 1.40 91 1008.0
20260506111204 8 8 3.2 8.0 0.25 1.37 1.37 92 1007.9
20260506110705 8 357 0.0 0.0 0.23 1.35 1.35 92 1007.9
20260506110513 8 269 0.0 1.6 0.23 1.35 1.35 92 1006.6
20260506110204 8 350 0.0 4.8 0.23 1.32 1.32 92 1007.8
20260506105704 8 20 0.0 0.0 0.23 1.30 1.30 92 1007.9
20260506105512 8 11 0.0 0.0 0.23 1.30 1.30 92 1006.7
20260506104705 8 13 0.0 1.6 0.18 1.27 1.27 92 1007.8
20260506104512 8 28 0.0 1.6 0.18 1.27 1.27 92 1006.7
20260506104204 8 3 0.0 0.0 0.18 1.24 1.24 92 1007.8
20260506103704 8 20 0.0 0.0 0.15 1.22 1.22 92 1007.8
20260506103512 8 17 0.0 0.0 0.15 1.22 1.22 92 1006.6
20260506103204 8 7 0.0 0.0 0.15 1.19 1.19 92 1007.8
20260506102705 8 6 0.0 0.0 0.15 1.17 1.17 92 1007.8
20260506102512 8 40 0.0 0.0 0.15 1.17 1.17 92 1006.6
20260506102205 8 78 0.0 0.0 0.13 1.17 1.17 92 1007.8
20260506101512 8 40 0.0 1.6 0.10 1.14 1.14 92 1006.5
20260506101204 8 59 0.0 8.0 0.08 1.12 1.12 92 1007.6
20260506095512 8 13 0.0 1.6 0.05 1.09 1.09 92 1006.3
20260506095204 8 345 0.0 0.0 0.05 1.09 1.09 92 1007.5
20260506094705 8 288 0.0 0.0 0.05 1.09 1.09 92 1007.5
20260506094204 8 343 0.0 0.0 0.05 1.07 1.07 93 1007.4
20260506093704 8 318 0.0 8.0 0.05 1.07 1.07 92 1007.3
20260506093512 8 289 0.0 8.0 0.05 1.07 1.07 92 1006.2
20260506093204 8 336 0.0 0.0 0.05 1.07 1.07 92 1007.3
20260506092704 8 338 0.0 0.0 0.05 1.04 1.04 92 1007.3
20260506092512 8 360 0.0 0.0 0.05 1.04 1.04 92 1006.2
20260506092204 8 356 0.0 0.0 0.05 1.04 1.04 92 1007.3
20260506091512 8 358 0.0 0.0 0.05 1.04 1.04 92 1006.1
20260506091204 8 349 0.0 1.6 0.05 1.04 1.04 92 1007.3
20260506090704 8 350 1.6 8.0 0.05 1.04 1.04 91 1007.4
20260506090512 8 350 1.6 6.4 0.05 1.04 1.04 91 1006.2
20260506090204 8 3 1.6 8.0 0.05 1.04 1.04 91 1007.4
20260506085704 7 353 0.0 0.0 0.05 1.04 1.04 91 1007.3
20260506085512 7 20 0.0 0.0 0.05 1.02 1.02 91 1006.2
20260506085204 7 355 0.0 0.0 0.05 1.02 1.02 91 1007.4
20260506084704 7 0 0.0 0.0 0.05 1.02 1.02 91 1007.3
20260506084512 7 345 0.0 0.0 0.05 1.02 1.02 91 1006.1
20260506084204 7 359 0.0 0.0 0.08 1.02 1.02 91 1007.4
20260506083704 7 30 0.0 0.0 0.08 1.02 1.02 91 1007.3
20260506083512 7 28 0.0 0.0 0.10 1.02 1.02 91 1006.2
20260506082704 7 4 0.0 4.8 0.08 0.99 0.99 91 1007.4
20260506082204 7 86 1.6 8.0 0.08 0.99 0.99 90 1007.4
20260506081704 7 21 0.0 1.6 0.10 0.99 0.99 91 1007.3
20260506081512 7 12 0.0 0.0 0.10 0.99 0.99 91 1006.1
20260506081204 7 37 0.0 0.0 0.08 0.99 0.99 90 1007.3
20260506080705 7 53 3.2 9.7 0.08 0.99 0.99 90 1007.3
20260506080512 7 29 0.0 0.0 0.08 0.99 0.99 90 1006.1